Regional Weather Roundup
Issued by NWS Newport/Morehead, NC

Current Version | Previous Version | Text Only | Print | Product List | Glossary On
Versions: 1 2 3 4 5 6 7 8 9 10 11 12 13 14 15 16 17 18 19 20 21 22 23 24 25 26 27 28 29 30 31 32 33 34 35 36 37 38 39 40 41 42 43 44 45 46 47 48 49 50
000 ASUS42 KMHX 262012 RWRMHX WEATHER ROUNDUP FOR EASTERN NORTH CAROLINA NATIONAL WEATHER SERVICE NEWPORT/MOREHEAD CITY NC 400 PM EDT THU MAR 26 2015 NOTE: "FAIR" INDICATES FEW OR NO CLOUDS BELOW 12,000 FEET WITH NO SIGNIFICANT WEATHER AND/OR OBSTRUCTIONS TO VISIBILITY NCZ015>017-031-032-045>047-102-103-262100- NORTH COAST CITY SKY/WX TMP DP RH WIND PRES REMARKS EDENTON HVY RAIN 65 62 88 W13G21 29.81R ELIZABETH CITY MOSUNNY 74 59 59 S23G35 29.77F KITTY HAWK MOCLDY 70 62 77 S15G29 29.81S MANTEO PTSUNNY 64 59 82 S24 29.82F $$ NCZ045>047-081-094-103-104-262100- CENTRAL COAST CITY SKY/WX TMP DP RH WIND PRES REMARKS FRISCO PTSUNNY 67 62 84 S23G32 29.86F SWANQUARTER N/A 68 N/A N/A S22 29.79S $$ NCZ095-097-098-100-101-262100- SOUTHERN COAST CITY SKY/WX TMP DP RH WIND PRES REMARKS BEAUFORT SUNNY 67 60 78 S18G26 29.87F CEDAR ISLAND N/A 72 N/A N/A S12G28 29.88S JACKSONVILLE PTSUNNY 76 52 43 SW14G24 29.84F PINEY ISLAND PTCLDY N/A N/A N/A S24G35 29.85F WILMINGTON MOSUNNY 76 56 49 SW15G25 29.86F $$ NCZ011>013-027>030-043-044-078>080-089-090>093-098-262100- COASTAL PLAIN CITY SKY/WX TMP DP RH WIND PRES REMARKS AHOSKIE PTSUNNY 69 61 76 S5 29.78F CLINTON PTSUNNY 74 58 56 SW13G20 29.83F ELIZABETHTOWN PTSUNNY 76 57 52 SW10G17 29.84F GOLDSBORO SUNNY 75 67 76 SW22 29.79F GREENVILLE MOSUNNY 72 61 68 SW8 29.83F HAVELOCK PTSUNNY 74 59 59 SW15G29 29.85F KENANSVILLE PTSUNNY 74 56 51 SW7 29.84F KINSTON MOSUNNY 75 57 53 SW14G23 29.82F NEW BERN PTSUNNY 76 59 55 S12G23 29.83F RICHLANDS CLOUDY 73 54 49 SW14G21 29.85F ROCKY MOUNT PTSUNNY 73 58 59 SW17G25 29.79F WASHINGTON MOSUNNY 71 64 77 SW12 29.81F WHITEVILLE CLOUDY 75 57 52 SW12G18 29.85F $$ AMZ130-135-150-152-154-156-158-170-250-252-270-ANZ085-086-088-633-658-670-262100- MARINE OBSERVATIONS STATION/POSITION TIME TEMP WIND PRES WAVE SWELL AIR SEA DIR/SP/G HT/PER HT/PER (UTC) (F) (DEG/KT/KT) (MB) (FT/S) (FT/S) CHESAPEAKE LIGHT NOT AVBL 64 E VA BEACH 1950 62 54 170/ 21/ 25 1008.8 7/ 8 5/ 8 DUCK 1900 68 43 180/ 23/ 28 1008.6 2 E DUCK 1911 44 N/A 5/ 7 10 NE DUCK NOT AVBL OREGON INLET 1900 65 56 170/ 23/ 30 1010.3 HATTERAS CG 1900 69 57 170/ 21/ 30 1011.9 CAPE LOOKOUT 2000 67 190/ 14/ 17 1011.6 BEAUFORT LAB 1900 62 56 190/ 14/ 17 1010.7 27 SE WRIGHTSVLE 1900 63 65 220/ 16/ 17 1014.8 5 SE WRIGHTSVLE 1900 61 56 190/ 16/ 17 1012.3 225 S CAPE HAT 1950 70 69 180/ 19/ 23 1016.5 8/ 7 41 SE CHARLESTON 1950 67 71 230/ 12/ 14 1012.7 5/ 8 5/ 8 $$

USA.gov is the U.S. government's official web portal to all federal, state and local government web resources and services.